sat.trackr.live / text

‹ back to catalog

STARLINK-11293 [DTC]

NORAD 61249 · 2024-175G

PAYLOAD ACTIVE UNKNOWN

§ Identity

Operator
Country
US
Launch date
2024-09-25
Launch site
AFWTR
Launch vehicle
Mass (kg)
RCS (m²)

Purposes: comms

External: N2YO · Heavens-Above · Gunter

§ Orbital elements

Epoch: 2026-09-21T01:05:28.371264Z

Period
91.74 min
Inclination
53.1599°
Eccentricity
0.0000924
Mean motion
15.69707352 rev/d
Perigee alt
359.1 km
Apogee alt
360.4 km
Semi-major
6,737.9 km
B*
6.7733e-6
RAAN
172.9125°
Arg perigee
96.7565°
Mean anomaly
263.3558°
Rev number
11,405

§ Raw data

STARLINK-11293 [DTC]1 61249U 24175G   26264.04546726  .00000232  00000+0  67733-5 0  99922 61249  53.1599 172.9125 0000924  96.7565 263.3558 15.69707352114054

JSON: /api/v1/satellites/61249 · /tle

For live sub-satellite position, see the globe view (requires WebGL).

§ Visibility from observer

Set your observer location to see the next 7 days of passes ≥ 10°. The values pass through the URL so the page stays shareable.

No JS? Fill the form by hand. The geolocation button needs JavaScript.